Theta_e
349 353 354 355 354 353 354 354 351 352 351 352 351 349 351 352 352 351 351 352 352 350 351 352 352 352 352 352 351 347 349 353 353 353 351 352 352 351 344 346 348 348 350
349 352 351 354 354 355 354 354 349 352 350 348 347 349 351 352 351 352 352 352 352 352 352 352 352 352 352 352 352 352 351 347 352 353 353 351 349 342 345 347 346 345 351
348 347 349 351 354 354 352 348 352 354 352 350 352 352 353 353 353 352 351 352 354 353 348 352 354 354 351 352 352 351 350 350 352 350 348 349 346 351 347 342 337 350 351
347 347 352 348 348 353 347 351 351 353 353 350 349 350 353 352 352 352 354 353 353 352 353 349 354 353 352 351 352 351 348 349 343 348 348 349 345 345 351 348 344 350 348
346 348 352 350 349 353 355 353 354 353 353 353 352 353 353 353 353 354 353 351 353 352 354 352 350 351 353 353 350 352 347 341 347 349 350 349 347 349 350 346 344 345 347
346 350 351 352 355 353 355 354 352 353 354 352 354 354 352 352 353 354 353 352 353 353 352 352 351 352 350 351 352 352 342 341 348 348 349 347 347 348 351 350 350 349 348
346 349 353 351 354 355 353 355 355 354 350 354 348 353 353 352 353 350 353 353 354 353 352 353 352 351 351 350 349 347 344 345 350 345 345 347 351 346 347 352 346 344 345
345 345 351 353 355 349 354 354 355 351 346 352 353 351 351 354 352 351 351 353 353 353 350 351 353 352 350 351 346 345 343 344 349 348 345 347 345 338 348 347 345 346 347
345 345 347 353 355 352 345 352 354 353 353 354 354 351 351 345 347 346 348 352 350 351 352 351 352 348 344 345 346 343 342 341 350 349 348 348 336 345 350 347 345 346 349
345 347 347 351 351 347 346 353 355 351 351 348 349 353 349 352 347 344 341 345 347 348 349 351 351 351 347 341 342 341 339 340 347 348 344 348 339 339 351 346 349 350 349
346 347 346 349 350 347 348 347 350 348 354 351 346 343 339 344 351 348 350 340 343 345 343 349 349 349 349 346 334 333 333 342 347 342 347 346 342 339 352 352 347 347 350
347 346 346 345 346 346 349 353 352 348 349 350 349 350 349 348 349 349 348 341 340 346 347 346 342 342 348 344 348 344 345 337 345 343 344 345 344 341 342 351 351 345 349
347 346 346 345 346 344 350 347 347 347 347 347 350 350 350 343 347 344 348 350 348 349 349 350 350 349 349 347 347 347 346 347 345 341 345 342 340 339 341 342 351 349 347
346 346 347 347 347 346 346 345 349 348 345 347 349 352 353 354 347 344 350 351 351 353 350 347 345 346 350 348 347 346 345 344 347 347 343 344 342 341 340 344 346 351 351
345 346 346 348 351 349 348 346 347 346 346 349 350 354 354 353 352 352 353 353 352 351 349 349 347 343 344 347 350 348 345 344 343 342 345 345 347 346 341 340 345 347 351
343 344 344 346 351 352 351 349 348 348 349 351 351 352 354 353 353 353 354 354 356 354 353 353 353 349 347 350 351 349 348 346 346 347 336 334 341 347 346 342 340 343 346
343 343 343 344 347 352 351 351 350 348 347 349 349 352 354 354 354 355 353 354 355 351 356 354 354 350 345 347 351 351 350 349 350 352 349 344 342 348 347 346 337 340 342
347 344 343 342 344 348 349 351 351 349 348 348 349 349 354 355 354 357 355 352 354 353 352 353 354 353 352 352 352 352 352 353 353 351 351 350 346 343 344 346 343 340 338
351 350 344 343 343 346 348 350 352 351 352 350 351 352 352 355 355 354 353 354 356 352 353 354 356 355 355 351 352 352 352 352 351 352 351 350 351 351 347 345 347 345 343
350 353 349 346 346 348 349 351 350 350 350 351 352 353 354 354 357 355 352 355 353 351 352 352 353 352 352 351 351 350 351 351 351 349 348 351 350 352 351 349 345 346 345
349 351 349 349 349 349 351 352 351 350 351 352 352 355 356 354 356 357 353 353 354 350 351 351 350 347 348 351 349 345 345 345 344 348 348 352 351 351 352 351 350 347 350
349 352 352 352 352 352 351 352 351 351 352 355 355 358 357 356 355 354 355 353 354 344 344 347 343 344 343 346 347 346 348 350 352 350 349 349 352 353 350 353 352 350 349
349 350 353 353 355 356 353 353 353 354 358 353 352 354 355 353 355 355 355 353 347 343 341 344 342 346 347 345 348 352 355 356 350 349 352 349 349 351 351 351 352 352 351
349 350 352 357 355 358 355 353 355 356 353 352 354 354 355 357 356 355 354 346 343 341 342 342 342 344 341 341 342 345 347 348 352 355 350 351 350 351 349 350 351 350 352
346 349 351 355 358 356 356 355 354 357 353 353 353 356 357 357 356 353 345 343 342 341 344 343 342 341 336 337 336 337 338 339 344 350 354 350 351 352 350 349 350 351 351
345 348 351 355 359 358 357 359 356 356 354 353 354 355 355 355 352 344 343 344 345 347 343 342 343 342 341 339 338 336 334 337 338 338 345 347 349 349 354 356 352 348 345
Wind_Speed
19 17 16 15 16 16 15 16 16 16 15 14 14 14 14 12 13 12 12 11 10 9 8 7 8 9 10 11 12 12 13 13 13 12 12 13 13 10 11 13 13 11 12
22 19 18 16 16 15 15 15 15 15 14 14 12 11 10 9 10 10 9 9 8 8 7 7 7 8 9 10 11 11 11 12 11 11 12 12 11 11 11 7 9 12 11
23 20 17 17 15 15 15 15 15 14 13 13 11 10 9 9 9 8 8 8 7 8 7 7 9 9 10 10 10 11 9 9 9 8 10 12 10 9 9 9 10 13 11
22 20 17 15 16 15 14 14 14 13 12 11 11 8 9 8 8 9 8 7 7 8 8 8 9 9 9 9 10 9 9 7 8 8 5 9 11 9 10 10 10 11 10
20 20 18 17 15 15 15 15 13 13 11 10 9 8 8 7 6 6 6 7 6 7 7 8 8 8 8 9 7 9 7 8 7 3 6 4 9 11 10 9 9 9 8
20 20 18 18 16 14 14 14 14 12 11 9 8 7 7 7 7 6 5 6 6 7 7 7 7 7 8 8 8 7 6 7 2 7 4 6 9 10 10 8 10 9 9
21 19 17 16 14 14 13 11 12 11 9 8 7 7 7 6 5 5 5 5 5 5 5 5 5 6 6 7 7 5 3 1 3 2 1 6 12 8 9 8 7 8 8
19 20 18 16 14 12 12 11 9 8 9 7 7 6 6 5 5 4 4 3 3 4 4 4 4 5 5 5 4 3 2 0 5 4 3 6 6 8 9 8 6 9 9
18 21 18 15 13 11 11 10 9 9 7 8 6 5 5 5 5 4 4 3 2 1 2 3 4 4 5 4 3 3 3 2 4 3 8 8 7 9 9 8 8 8 8
17 17 18 16 14 12 11 10 10 8 7 6 6 5 5 6 4 3 2 2 2 2 3 3 5 5 5 6 6 6 5 6 8 7 4 11 7 7 9 8 9 9 9
15 16 18 17 15 13 14 10 8 8 7 6 5 6 5 4 4 3 6 4 4 3 4 6 7 8 8 9 9 8 8 10 13 6 14 10 5 7 10 10 10 11 11
17 15 18 16 16 12 14 14 9 8 7 6 5 5 5 3 3 4 4 5 7 7 8 8 8 10 10 11 15 11 11 10 6 9 8 8 6 7 10 11 11 12 12
15 16 15 14 13 12 12 10 10 11 10 8 7 7 8 6 5 4 5 8 6 8 8 7 7 10 12 12 12 14 15 14 9 9 2 7 8 9 11 13 13 13 14
16 14 12 13 13 11 9 9 10 10 5 7 9 7 8 7 7 6 6 9 6 6 9 10 10 11 10 11 14 16 12 11 4 7 11 8 10 13 14 14 16 15 15
16 15 14 13 12 12 9 9 6 5 6 5 5 7 5 6 6 6 7 8 8 9 13 12 12 12 12 14 15 16 16 13 20 14 13 9 13 16 16 19 17 19 18
16 16 15 14 14 13 12 8 6 6 5 3 7 7 4 6 7 8 5 8 9 9 10 12 13 13 10 12 14 15 17 19 17 20 28 27 19 20 20 22 23 21 21
16 16 15 15 15 14 13 11 10 8 9 7 7 6 4 6 7 8 10 8 12 6 9 10 13 13 13 14 13 14 17 19 19 19 21 26 25 17 19 20 25 24 23
15 16 15 15 16 15 13 11 10 9 8 7 6 7 6 6 6 7 10 13 6 10 11 10 11 12 14 11 11 11 15 15 18 20 19 19 24 29 27 23 23 26 26
10 14 15 14 14 15 13 11 10 7 8 8 6 8 9 5 4 8 9 9 9 11 7 7 7 7 9 8 10 11 12 15 19 22 25 24 22 25 23 28 25 25 28
16 12 16 15 13 13 13 12 10 10 9 9 9 9 5 5 5 8 9 3 8 6 7 9 9 9 9 10 11 12 16 18 21 16 18 26 25 23 21 28 25 28 28
21 19 15 16 16 16 15 14 12 12 10 8 7 3 4 4 4 5 7 8 4 8 8 9 8 11 11 8 11 12 16 17 16 7 11 12 18 24 25 26 23 26 25
21 22 20 17 17 17 16 15 13 10 7 1 1 2 3 4 3 6 5 7 6 12 11 9 11 12 13 2 11 15 9 8 9 7 8 15 17 18 26 20 22 27 27
23 22 23 23 20 18 14 14 12 8 5 2 4 3 4 5 5 1 2 6 7 9 10 8 10 11 12 10 11 3 4 4 16 9 6 12 12 9 13 19 24 26 29
24 23 22 24 24 21 18 14 14 14 11 9 5 4 3 5 3 1 1 3 4 5 7 10 12 12 13 13 10 3 5 6 3 7 14 12 16 11 10 12 17 23 24
24 23 23 23 24 22 20 16 14 14 11 9 5 4 4 6 3 2 2 3 4 6 6 6 8 10 12 11 13 15 15 12 7 2 8 17 17 13 6 5 9 13 15
23 21 22 23 22 22 19 17 15 14 10 7 6 7 6 9 6 3 3 3 5 5 6 7 8 9 10 11 11 13 14 13 15 15 7 9 12 10 6 4 4 7 7
Wind_Direction
135 133 125 121 119 118 118 116 116 114 110 112 114 111 106 109 106 101 99 98 96 96 94 88 87 87 84 81 87 101 102 104 107 108 108 109 113 114 117 119 122 108 113
130 135 129 123 120 120 119 120 116 118 120 115 112 114 115 111 104 103 101 94 97 98 93 90 88 93 91 91 92 96 100 112 121 123 129 118 116 116 104 64 116 119 114
131 135 129 128 122 118 121 123 127 126 119 115 119 121 125 116 111 107 102 93 99 102 92 98 93 95 94 101 100 98 105 116 127 131 136 125 120 117 116 109 120 116 120
131 135 129 127 128 125 135 130 130 127 124 128 125 124 117 116 113 103 102 104 104 110 100 103 94 92 99 102 103 107 111 123 124 124 112 138 120 125 122 121 123 123 128
137 130 133 128 126 136 137 130 129 129 131 132 128 125 117 109 109 108 103 111 110 103 108 108 103 101 96 102 109 111 115 113 119 125 132 132 113 135 131 129 122 124 137
138 131 142 136 133 136 128 131 135 131 132 131 130 138 127 107 110 111 119 107 108 107 106 107 102 109 109 115 108 107 99 127 145 118 147 136 123 133 130 137 133 134 137
134 136 141 140 138 135 143 141 137 136 134 127 129 118 126 120 112 121 113 115 112 107 105 111 116 115 114 120 125 126 131 206 300 163 159 148 125 130 143 140 153 159 153
136 144 146 144 148 148 146 146 146 143 136 140 135 136 134 122 126 123 134 120 114 130 121 128 136 134 141 145 147 144 153 27 307 218 162 122 129 144 148 157 160 156 156
146 140 149 147 149 149 153 152 156 145 146 146 145 139 137 142 146 153 159 156 145 143 153 164 170 172 186 189 192 212 241 270 261 203 196 174 138 162 164 171 170 170 168
152 148 153 154 159 154 153 157 153 163 164 152 153 167 171 181 181 157 136 160 192 196 215 214 205 210 216 222 222 235 249 250 243 184 211 138 129 163 173 182 181 183 185
157 163 157 164 159 170 156 165 157 168 171 168 166 183 172 197 191 205 206 236 217 229 220 226 231 232 232 240 234 235 250 255 289 230 189 157 181 186 185 195 195 195 194
163 177 162 171 158 173 160 145 177 179 181 194 183 191 215 199 220 224 220 259 237 232 234 235 241 248 240 247 226 219 230 227 253 256 202 187 210 221 208 208 207 203 203
174 178 166 170 160 166 145 150 174 177 183 186 193 207 205 221 230 249 241 242 238 257 247 245 256 254 271 275 268 228 244 199 214 259 133 198 220 240 225 217 216 213 210
178 180 179 167 163 182 175 187 190 177 189 199 178 203 201 220 238 236 262 269 251 243 249 257 253 259 271 265 255 260 247 244 198 241 246 260 262 254 234 224 220 218 217
178 181 184 177 176 190 190 194 213 190 195 155 193 193 226 256 223 262 249 263 271 265 267 263 257 258 264 266 253 252 252 251 250 234 254 264 268 255 247 235 226 222 220
181 180 183 189 185 190 196 201 214 216 215 217 198 205 230 272 287 298 284 280 269 259 267 261 257 252 261 271 263 252 244 253 249 255 248 256 260 256 255 244 233 230 222
182 177 185 190 186 193 199 200 208 213 213 234 244 223 242 266 288 294 289 280 281 250 269 268 260 255 262 268 268 248 247 249 252 250 250 249 243 248 248 248 239 234 229
181 174 189 190 188 193 199 202 210 216 235 238 257 267 212 234 279 288 295 289 327 314 307 307 280 269 263 268 268 256 252 259 253 246 249 256 251 243 243 247 244 239 233
172 181 186 191 196 185 198 205 218 218 233 249 255 269 261 268 273 291 293 301 341 312 340 324 319 290 281 282 285 275 265 263 260 247 236 236 249 250 237 238 237 238 237
185 182 189 190 195 190 194 207 217 225 237 245 252 264 279 293 280 273 287 319 321 322 341 332 324 319 295 300 298 289 273 262 251 260 259 236 234 238 241 236 232 239 237
180 188 187 198 191 193 200 204 213 220 225 238 246 270 287 273 259 268 305 302 334 304 317 303 318 296 305 274 289 284 291 272 268 280 276 293 265 253 246 226 237 234 231
196 188 193 192 193 198 204 212 223 218 219 270 283 352 274 277 270 268 316 339 357 330 310 6 325 309 311 332 337 316 286 357 342 264 293 314 296 267 248 234 228 231 235
200 202 195 199 193 194 202 205 211 228 239 301 270 262 246 228 241 220 348 347 341 308 1 347 344 346 333 345 10 311 331 344 333 334 324 331 324 289 255 248 233 235 238
196 200 202 195 199 199 198 195 202 206 211 213 215 185 186 181 192 130 8 358 4 348 13 7 8 349 358 345 323 314 255 268 324 322 332 356 342 328 279 260 244 239 245
193 192 193 196 198 202 201 216 199 222 201 219 174 159 164 166 161 133 59 30 16 21 38 21 14 9 356 348 349 343 330 327 326 327 333 342 347 343 320 298 247 234 229
185 183 183 186 193 199 200 207 208 196 215 187 186 178 175 183 151 126 97 69 52 28 36 24 15 24 12 2 354 339 341 333 345 333 324 342 334 339 353 331 258 231 241